Regional Weather Roundup
Issued by NWS Midland/Odessa, TX

Skip options and go directly to product.
Home | Oldest Version | Previous Version | Current Version | All | Graphics & Text | Save Text | Print | Product List | Glossary On

Skip product version selection by date and time.   
125
ASUS44 KMAF 230910
RWRMAF
MIDLAND AREA WEATHER ROUNDUP
NATIONAL WEATHER SERVICE MIDLAND TX
400 AM CDT SAT AUG 23 2014

...IN SOUTHWEST TEXAS AND SOUTHEAST NEW MEXICO...

CITY           SKY/WX    TMP DP  RH WIND       PRES   REMARKS
ALPINE         CLOUDY    69  63  80 SW3       30.17S
ANDREWS        MOCLDY    76  51  41 S5        30.04S
ARTESIA        NOT AVBL
BIG SPRING     MOCLDY    79  51  37 SE15      30.04F
CARLSBAD       CLOUDY    73  65  75 SE6       30.01F
DRYDEN           N/A     80  46  30 E5        29.98F
FORT STOCKTON  CLOUDY    74  64  71 CALM      30.04S
GUAD PASS      PTCLDY    65  58  78 W12       30.19S
HOBBS          CLOUDY    72  64  78 S9        30.05F
MARFA          CLOUDY    64  61  88 NE5       30.16F
MIDLAND AIRPK  MOCLDY    78  46  32 SE9       30.03S
MIDLAND INTL   MOCLDY    74  51  44 S7        30.02F
ODESSA         MOCLDY    75  49  39 SE9       30.03F
PECOS          CLOUDY    70  66  88 SE3       30.00R
PRESIDIO       FAIR      73  68  83 CALM      30.01S
SEMINOLE       CLOUDY    72  63  73 SE8       30.04F
SNYDER         PTCLDY    73  53  48 S7        30.03S
WINK           CLOUDY    73  68  84 W3        29.99F
$$
...OTHER STATIONS IN TEXAS...

CITY           SKY/WX    TMP DP  RH WIND       PRES   REMARKS
ABILENE        CLEAR     80  58  46 S9        30.01S
AMARILLO       MOCLDY    71  57  61 SW14      30.03R
AUSTIN         PTCLDY    75  73  93 SW5       30.00S
BROWNSVILLE    PTCLDY    80  78  94 SE3       29.97F
CORPUS CHRISTI PTCLDY    77  73  87 S3        29.97F
DALLAS FTW     CLEAR     83  68  60 S13       29.96S
DEL RIO        PTCLDY    81  66  60 E8        29.96F
EL PASO        MOCLDY    70  59  68 SW7       30.06F
HOUSTON INT    PTCLDY    76  75  97 CALM      30.00S
LUBBOCK        CLOUDY    74  56  53 SE10      30.03F
SAN ANGELO     PTCLDY    78  62  57 S8        30.01S
SAN ANTONIO    PTCLDY    79  73  82 S9        30.03R
WACO           CLEAR     80  69  69 S12       29.99S
WICHITA FALLS  NOT AVBL
$$
...OTHER LOCATIONS IN NEW MEXICO...

CITY           SKY/WX    TMP DP  RH WIND       PRES   REMARKS
ALAMAGORDO     PTCLDY    63  59  88 S3        30.09F
ALBUQUERQUE    PTCLDY    60  54  80 S3        30.17S
CANNON AFB     LGT RAIN  66  60  83 SW7       30.09S
CLOVIS           N/A     64  61  88 SW18G26   30.12S
HOLLOMAN AFB   PTCLDY    64  63  94 W2        30.07F
ROSWELL        PTCLDY    69  62  78 CALM      30.03F
RUIDOSO        CLOUDY    55  54  94 W7        30.25F
SANTA FE       PTCLDY    51  50  96 CALM      30.20F
TRUTH OR CONSE PTCLDY    63  58  83 NW5       30.12F
TUCUMCARI      PTCLDY    69  57  65 W5        30.03S
$$

USA.gov is the U.S. government's official web portal to all federal, state and local government web resources and services.